When you browse on this site, cookies collect data to enhance your experience and personalize the content and advertising you see.
Visit our Privacy Policy to learn more. By continuing to use the site, you agree to this use of cookies and data.
  • Em Portugal
  • Lista de países
  • Para 7 dias
  • Temperatura da água
  • Mapas de satélite
  • Mapa do tempo
  • Widgets de tempo
  • user-avatar
    Iniciar Sessão

    Previsão horária em Luanda

    Hoje, 15 Dezembro, Sábado

    Tempo Temperatura Precipitação Vento Pressão Humidade
    00:00 +27°C° 0 mm 2 m/s 755 mmHg 79%
    01:00 +27°C° 0 mm 2 m/s 755 mmHg 79%
    02:00 +27°C° 0 mm 2 m/s 755 mmHg 79%
    03:00 +27°C° 0 mm 1 m/s 755 mmHg 79%
    04:00 +27°C° 0 mm 1 m/s 755 mmHg 79%
    05:00 +27°C° 0 mm 1 m/s 755 mmHg 78%
    06:00 +27°C° 0 mm 1 m/s 756 mmHg 77%
    07:00 +27°C° 0 mm 1 m/s 756 mmHg 76%
    08:00 +29°C° 0 mm 1 m/s 756 mmHg 69%
    09:00 +30°C° 0 mm 1 m/s 756 mmHg 62%
    10:00 +32°C° 0 mm 2 m/s 756 mmHg 55%
    11:00 +34°C° 0 mm 2 m/s 755 mmHg 52%
    12:00 +35°C° 0 mm 3 m/s 755 mmHg 49%
    13:00 +35°C° 0 mm 4 m/s 754 mmHg 46%
    14:00 +34°C° 0 mm 4 m/s 754 mmHg 49%
    15:00 +34°C° 0 mm 4 m/s 753 mmHg 52%
    16:00 +33°C° 0 mm 4 m/s 753 mmHg 55%
    17:00 +30°C° 0 mm 4 m/s 753 mmHg 60%
    18:00 +29°C° 0 mm 3 m/s 754 mmHg 66%
    19:00 +28°C° 0 mm 3 m/s 754 mmHg 71%
    20:00 +27°C° 0 mm 3 m/s 755 mmHg 74%
    21:00 +27°C° 0 mm 2 m/s 755 mmHg 76%
    22:00 +27°C° 0 mm 2 m/s 756 mmHg 78%
    23:00 +27°C° 0 mm 2 m/s 756 mmHg 80%

    Amanhã, 16 Dezembro, Domingo

    Tempo Temperatura Precipitação Vento Pressão Humidade
    00:00 +26°C° 0 mm 1 m/s 756 mmHg 81%
    01:00 +26°C° 0 mm 1 m/s 756 mmHg 82%
    02:00 +26°C° 0 mm 1 m/s 755 mmHg 83%
    03:00 +26°C° 0 mm 1 m/s 755 mmHg 83%
    04:00 +26°C° 0 mm 1 m/s 755 mmHg 84%
    05:00 +26°C° 0 mm 1 m/s 755 mmHg 83%
    06:00 +26°C° 0 mm 1 m/s 755 mmHg 82%
    07:00 +26°C° 0 mm 1 m/s 756 mmHg 82%
    08:00 +27°C° 0 mm 1 m/s 756 mmHg 77%
    09:00 +28°C° 0 mm 1 m/s 756 mmHg 73%
    10:00 +29°C° 0 mm 1 m/s 756 mmHg 69%
    11:00 +29°C° 0.1 mm 1 m/s 756 mmHg 67%
    12:00 +30°C° 0.1 mm 1 m/s 755 mmHg 65%
    13:00 +30°C° 0.1 mm 1 m/s 755 mmHg 64%
    14:00 +30°C° 0.1 mm 2 m/s 754 mmHg 63%
    15:00 +30°C° 0.1 mm 2 m/s 754 mmHg 63%
    16:00 +30°C° 0.1 mm 3 m/s 753 mmHg 63%
    17:00 +29°C° 0 mm 2 m/s 754 mmHg 68%
    18:00 +28°C° 0 mm 2 m/s 754 mmHg 72%
    19:00 +27°C° 0 mm 2 m/s 755 mmHg 76%
    20:00 +27°C° 0 mm 2 m/s 755 mmHg 79%
    21:00 +26°C° 0 mm 2 m/s 756 mmHg 81%
    22:00 +26°C° 0 mm 1 m/s 756 mmHg 84%
    23:00 +26°C° 0 mm 1 m/s 756 mmHg 85%

    Depois de amanhã, 17 Dezembro, Segunda-feira

    Tempo Temperatura Precipitação Vento Pressão Humidade
    00:00 +25°C° 0 mm 1 m/s 755 mmHg 85%
    01:00 +25°C° 0 mm 1 m/s 755 mmHg 86%
    02:00 +25°C° 0 mm 1 m/s 755 mmHg 87%
    03:00 +25°C° 0 mm 1 m/s 755 mmHg 87%
    04:00 +25°C° 0 mm 1 m/s 754 mmHg 88%
    05:00 +25°C° 0 mm 1 m/s 755 mmHg 87%
    06:00 +25°C° 0 mm 1 m/s 755 mmHg 87%
    07:00 +26°C° 0 mm 1 m/s 755 mmHg 86%
    08:00 +26°C° 0.1 mm 1 m/s 756 mmHg 83%
    09:00 +27°C° 0.1 mm 1 m/s 756 mmHg 80%
    10:00 +28°C° 0.1 mm 1 m/s 756 mmHg 77%
    11:00 +29°C° 0 mm 1 m/s 755 mmHg 71%
    12:00 +30°C° 0 mm 1 m/s 755 mmHg 66%
    13:00 +32°C° 0 mm 1 m/s 754 mmHg 60%
    14:00 +32°C° 0 mm 1 m/s 753 mmHg 58%
    15:00 +32°C° 0 mm 2 m/s 753 mmHg 55%
    16:00 +32°C° 0 mm 2 m/s 752 mmHg 53%
    17:00 +31°C° 0 mm 2 m/s 752 mmHg 60%
    18:00 +30°C° 0 mm 2 m/s 753 mmHg 66%
    19:00 +28°C° 0 mm 2 m/s 753 mmHg 73%
    20:00 +28°C° 0 mm 2 m/s 754 mmHg 76%
    21:00 +27°C° 0 mm 2 m/s 754 mmHg 80%
    22:00 +27°C° 0 mm 1 m/s 755 mmHg 83%
    23:00 +26°C° 0 mm 1 m/s 755 mmHg 84%

    18 Dezembro, Terça-feira

    Tempo Temperatura Precipitação Vento Pressão Humidade
    00:00 +26°C° 0 mm 1 m/s 754 mmHg 85%
    01:00 +26°C° 0 mm 1 m/s 754 mmHg 85%
    02:00 +26°C° 0 mm 1 m/s 754 mmHg 87%
    03:00 +26°C° 0 mm 1 m/s 754 mmHg 88%
    04:00 +25°C° 0 mm 1 m/s 754 mmHg 90%
    05:00 +26°C° 0 mm 2 m/s 754 mmHg 88%
    06:00 +26°C° 0 mm 2 m/s 755 mmHg 86%
    07:00 +26°C° 0 mm 2 m/s 755 mmHg 84%
    08:00 +29°C° 0 mm 1 m/s 755 mmHg 73%
    09:00 +32°C° 0 mm 1 m/s 755 mmHg 63%
    10:00 +32°C° 0 mm 0 m/s 755 mmHg 52%
    11:00 +36°C° 0 mm 2 m/s 754 mmHg 49%
    12:00 +37°C° 0 mm 3 m/s 754 mmHg 46%
    13:00 +37°C° 0 mm 4 m/s 753 mmHg 42%
    14:00 +36°C° 0 mm 4 m/s 752 mmHg 46%
    15:00 +35°C° 0 mm 5 m/s 752 mmHg 51%
    16:00 +34°C° 0 mm 5 m/s 752 mmHg 55%
    17:00 +32°C° 0 mm 5 m/s 752 mmHg 62%
    18:00 +30°C° 0 mm 5 m/s 753 mmHg 69%
    19:00 +28°C° 0 mm 4 m/s 753 mmHg 76%
    20:00 +28°C° 0 mm 4 m/s 754 mmHg 77%
    21:00 +28°C° 0 mm 3 m/s 755 mmHg 79%
    22:00 +28°C° 0 mm 3 m/s 755 mmHg 80%
    23:00 +27°C° 0 mm 3 m/s 755 mmHg 81%

    19 Dezembro, Quarta-feira

    Tempo Temperatura Precipitação Vento Pressão Humidade
    00:00 +27°C° 0 mm 3 m/s 755 mmHg 82%
    01:00 +27°C° 0 mm 2 m/s 755 mmHg 83%
    02:00 +27°C° 0 mm 2 m/s 755 mmHg 83%
    03:00 +27°C° 0 mm 2 m/s 754 mmHg 82%
    04:00 +27°C° 0 mm 2 m/s 754 mmHg 82%
    05:00 +27°C° 0 mm 3 m/s 755 mmHg 81%
    06:00 +27°C° 0 mm 3 m/s 755 mmHg 80%
    07:00 +27°C° 0 mm 3 m/s 755 mmHg 79%
    08:00 +28°C° 0 mm 3 m/s 756 mmHg 74%
    09:00 +29°C° 0 mm 3 m/s 756 mmHg 68%
    10:00 +30°C° 0 mm 3 m/s 756 mmHg 62%
    11:00 +31°C° 0 mm 3 m/s 755 mmHg 59%
    12:00 +33°C° 0 mm 3 m/s 755 mmHg 56%
    13:00 +34°C° 0 mm 3 m/s 754 mmHg 52%
    14:00 +33°C° 0 mm 3 m/s 753 mmHg 55%
    15:00 +33°C° 0 mm 4 m/s 753 mmHg 57%
    16:00 +32°C° 0 mm 4 m/s 752 mmHg 60%
    17:00 +30°C° 0 mm 4 m/s 753 mmHg 65%
    18:00 +29°C° 0 mm 4 m/s 753 mmHg 70%
    19:00 +28°C° 0 mm 4 m/s 754 mmHg 76%
    20:00 +27°C° 0 mm 3 m/s 754 mmHg 77%
    21:00 +27°C° 0 mm 3 m/s 754 mmHg 79%
    22:00 +27°C° 0 mm 3 m/s 755 mmHg 80%
    23:00 +26°C° 0 mm 3 m/s 755 mmHg 82%

    20 Dezembro, Quinta-feira

    Tempo Temperatura Precipitação Vento Pressão Humidade
    00:00 +26°C° 0 mm 3 m/s 754 mmHg 83%
    01:00 +26°C° 0 mm 3 m/s 754 mmHg 85%
    02:00 +26°C° 0 mm 3 m/s 754 mmHg 85%
    03:00 +26°C° 0 mm 3 m/s 754 mmHg 86%
    04:00 +26°C° 0 mm 3 m/s 753 mmHg 87%
    05:00 +26°C° 0 mm 2 m/s 754 mmHg 85%
    06:00 +26°C° 0 mm 2 m/s 754 mmHg 84%
    07:00 +27°C° 0 mm 2 m/s 755 mmHg 82%
    08:00 +28°C° 0 mm 2 m/s 755 mmHg 75%
    09:00 +29°C° 0 mm 2 m/s 755 mmHg 67%
    10:00 +31°C° 0 mm 2 m/s 755 mmHg 60%
    11:00 +32°C° 0 mm 2 m/s 755 mmHg 56%
    12:00 +34°C° 0 mm 3 m/s 754 mmHg 51%
    13:00 +35°C° 0 mm 3 m/s 753 mmHg 46%
    14:00 +34°C° 0 mm 4 m/s 753 mmHg 49%
    15:00 +34°C° 0 mm 4 m/s 752 mmHg 52%
    16:00 +33°C° 0 mm 5 m/s 752 mmHg 55%
    17:00 +32°C° 0 mm 4 m/s 752 mmHg 62%
    18:00 +29°C° 0 mm 4 m/s 753 mmHg 69%
    19:00 +27°C° 0 mm 3 m/s 753 mmHg 77%
    20:00 +27°C° 0 mm 3 m/s 754 mmHg 79%
    21:00 +27°C° 0 mm 3 m/s 754 mmHg 81%
    22:00 +26°C° 0 mm 3 m/s 755 mmHg 83%
    23:00 +26°C° 0 mm 3 m/s 754 mmHg 84%
    Mostrar mais